{"data":{"norad_id":63873,"intl_designator":"2025-094K","name":"STARLINK-33987","alt_names":[],"object_type":"PAYLOAD","status":"ACTIVE","operator":null,"country":"US","launch_date":"2025-05-10","launch_site_code":"AFWTR","launch_vehicle":null,"mission":null,"orbit_class":"UNKNOWN","rcs_meters":null,"size_class":null,"mass_kg":null,"dimensions":null,"purposes":["comms"],"wikipedia_slug":null,"has_3d_model":false,"image_url":null,"decayed_at":null,"tle_current":{"epoch":"2026-09-20T13:45:19.314144Z","epoch_age_seconds":140683,"freshness":"FRESH","line1":"1 63873U 25094K   26263.57314021  .00016275  00000+0  55480-3 0  9994","line2":"2 63873  70.0008 100.7480 0002498 269.0460  91.0430 15.30425716 76457","mean_motion":15.30425716,"eccentricity":0.0002498,"inclination_deg":70.0008,"raan_deg":100.748,"arg_perigee_deg":269.046,"mean_anomaly_deg":91.043,"bstar":0.0005548,"rev_number":7645,"period_min":94.091466508003,"perigee_km":472.82940594602,"apogee_km":476.25300397722,"semimajor_km":6852.6782049616,"source":"CELESTRAK","updated_at":"2026-09-21T09:00:35.138927Z"}}}